• en Belgique
  • Liste des pays
  • À 7 jours
  • Température de l'eau
  • Carte satellitaire
  • Carte météo
  • Widgets météo
  • user-avatar
    Se connecter

    Météo par heure à Etchmiadzin

    Ce jour, 22 Juillet, Dimanche

    Heure Température Précipitation Vent Pression Humidité
    00:00 +24°C° 0,1 mm 3 m/s 682 mmHg 69%
    01:00 +22°C° 0,2 mm 3 m/s 682 mmHg 71%
    02:00 +22°C° 0,2 mm 3 m/s 682 mmHg 74%
    03:00 +21°C° 0 mm 3 m/s 682 mmHg 75%
    04:00 +22°C° 0,4 mm 3 m/s 682 mmHg 74%
    05:00 +22°C° 0,4 mm 3 m/s 682 mmHg 74%
    06:00 +22°C° 0,4 mm 3 m/s 683 mmHg 73%
    07:00 +25°C° 0,1 mm 2 m/s 683 mmHg 67%
    08:00 +27°C° 0,1 mm 2 m/s 683 mmHg 60%
    09:00 +28°C° 0,1 mm 2 m/s 683 mmHg 53%
    10:00 +29°C° 0,2 mm 2 m/s 683 mmHg 49%
    11:00 +30°C° 0,2 mm 2 m/s 682 mmHg 45%
    12:00 +31°C° 0,2 mm 2 m/s 682 mmHg 40%
    13:00 +33°C° 0,3 mm 3 m/s 682 mmHg 39%
    14:00 +33°C° 0,3 mm 3 m/s 682 mmHg 38%
    15:00 +34°C° 0,3 mm 3 m/s 682 mmHg 37%
    16:00 +33°C° 0,4 mm 3 m/s 681 mmHg 40%
    17:00 +31°C° 0,4 mm 3 m/s 681 mmHg 42%
    18:00 +31°C° 0,4 mm 3 m/s 681 mmHg 44%
    19:00 +29°C° 0,4 mm 3 m/s 681 mmHg 51%
    20:00 +27°C° 0,4 mm 3 m/s 682 mmHg 58%
    21:00 +25°C° 0,4 mm 3 m/s 682 mmHg 65%
    22:00 +24°C° 0,2 mm 3 m/s 682 mmHg 68%
    23:00 +24°C° 0,2 mm 2 m/s 682 mmHg 70%

    Demain, 23 Juillet, Lundi

    Heure Température Précipitation Vent Pression Humidité
    00:00 +23°C° 0,2 mm 2 m/s 682 mmHg 73%
    01:00 +23°C° 0,2 mm 2 m/s 682 mmHg 74%
    02:00 +21°C° 0,2 mm 2 m/s 681 mmHg 76%
    03:00 +21°C° 0,2 mm 2 m/s 681 mmHg 78%
    04:00 +21°C° 0,1 mm 2 m/s 681 mmHg 77%
    05:00 +23°C° 0,1 mm 2 m/s 681 mmHg 76%
    06:00 +23°C° 0,1 mm 2 m/s 682 mmHg 74%
    07:00 +25°C° 0,1 mm 2 m/s 682 mmHg 66%
    08:00 +26°C° 0,1 mm 2 m/s 682 mmHg 58%
    09:00 +28°C° 0,1 mm 2 m/s 681 mmHg 51%
    10:00 +29°C° 0,3 mm 2 m/s 681 mmHg 46%
    11:00 +31°C° 0,3 mm 2 m/s 681 mmHg 42%
    12:00 +32°C° 0,3 mm 2 m/s 681 mmHg 38%
    13:00 +32°C° 0,4 mm 2 m/s 681 mmHg 37%
    14:00 +32°C° 0,4 mm 2 m/s 680 mmHg 37%
    15:00 +34°C° 0,4 mm 2 m/s 680 mmHg 36%
    16:00 +32°C° 0,8 mm 2 m/s 680 mmHg 40%
    17:00 +31°C° 0,8 mm 2 m/s 680 mmHg 43%
    18:00 +30°C° 0,8 mm 2 m/s 680 mmHg 47%
    19:00 +28°C° 0,5 mm 2 m/s 680 mmHg 52%
    20:00 +26°C° 0,5 mm 2 m/s 681 mmHg 57%
    21:00 +25°C° 0,5 mm 1 m/s 681 mmHg 62%
    22:00 +24°C° 0,3 mm 1 m/s 681 mmHg 64%
    23:00 +24°C° 0,3 mm 1 m/s 681 mmHg 65%

    Après-demain, 24 Juillet, Mardi

    Heure Température Précipitation Vent Pression Humidité
    00:00 +23°C° 0,3 mm 1 m/s 681 mmHg 67%
    01:00 +23°C° 0,2 mm 1 m/s 681 mmHg 69%
    02:00 +22°C° 0,2 mm 1 m/s 681 mmHg 71%
    03:00 +22°C° 0,2 mm 1 m/s 681 mmHg 73%
    04:00 +22°C° 0,1 mm 1 m/s 681 mmHg 71%
    05:00 +23°C° 0,1 mm 1 m/s 681 mmHg 70%
    06:00 +23°C° 0,1 mm 1 m/s 681 mmHg 69%
    07:00 +25°C° 0 mm 1 m/s 682 mmHg 60%
    08:00 +27°C° 0 mm 1 m/s 682 mmHg 51%
    09:00 +29°C° 0 mm 2 m/s 682 mmHg 42%
    10:00 +31°C° 0 mm 2 m/s 682 mmHg 38%
    11:00 +32°C° 0 mm 2 m/s 682 mmHg 34%
    12:00 +35°C° 0 mm 2 m/s 682 mmHg 30%
    13:00 +36°C° 0 mm 2 m/s 681 mmHg 28%
    14:00 +36°C° 0 mm 2 m/s 681 mmHg 27%
    15:00 +37°C° 0 mm 3 m/s 681 mmHg 25%
    16:00 +36°C° 0 mm 2 m/s 681 mmHg 27%
    17:00 +36°C° 0 mm 2 m/s 681 mmHg 29%
    18:00 +35°C° 0 mm 2 m/s 681 mmHg 31%
    19:00 +32°C° 0,1 mm 2 m/s 681 mmHg 37%
    20:00 +30°C° 0,1 mm 2 m/s 682 mmHg 43%
    21:00 +28°C° 0,1 mm 2 m/s 682 mmHg 49%
    22:00 +27°C° 0 mm 2 m/s 682 mmHg 52%
    23:00 +26°C° 0 mm 2 m/s 682 mmHg 56%

    25 Juillet, Mercredi

    Heure Température Précipitation Vent Pression Humidité
    00:00 +26°C° 0 mm 2 m/s 682 mmHg 59%
    01:00 +26°C° 0 mm 2 m/s 682 mmHg 60%
    02:00 +25°C° 0 mm 2 m/s 682 mmHg 60%
    03:00 +25°C° 0 mm 2 m/s 682 mmHg 60%
    04:00 +25°C° 0 mm 2 m/s 682 mmHg 59%
    05:00 +26°C° 0 mm 2 m/s 682 mmHg 57%
    06:00 +26°C° 0 mm 1 m/s 683 mmHg 56%
    07:00 +28°C° 0 mm 2 m/s 683 mmHg 48%
    08:00 +31°C° 0 mm 2 m/s 683 mmHg 41%
    09:00 +34°C° 0 mm 2 m/s 683 mmHg 33%
    10:00 +36°C° 0 mm 2 m/s 683 mmHg 30%
    11:00 +37°C° 0 mm 3 m/s 683 mmHg 27%
    12:00 +38°C° 0 mm 3 m/s 682 mmHg 23%
    13:00 +40°C° 0 mm 4 m/s 682 mmHg 23%
    14:00 +41°C° 0 mm 4 m/s 682 mmHg 22%
    15:00 +41°C° 0 mm 4 m/s 681 mmHg 21%
    16:00 +40°C° 0,1 mm 4 m/s 681 mmHg 25%
    17:00 +40°C° 0,1 mm 4 m/s 681 mmHg 28%
    18:00 +38°C° 0,1 mm 3 m/s 681 mmHg 31%
    19:00 +35°C° 0,1 mm 3 m/s 681 mmHg 38%
    20:00 +33°C° 0,1 mm 3 m/s 681 mmHg 46%
    21:00 +30°C° 0,1 mm 3 m/s 682 mmHg 53%
    22:00 +29°C° 0 mm 3 m/s 682 mmHg 56%
    23:00 +28°C° 0 mm 3 m/s 682 mmHg 58%

    26 Juillet, Jeudi

    Heure Température Précipitation Vent Pression Humidité
    00:00 +28°C° 0 mm 3 m/s 682 mmHg 61%
    01:00 +27°C° 0 mm 2 m/s 682 mmHg 62%
    02:00 +27°C° 0 mm 2 m/s 682 mmHg 63%
    03:00 +26°C° 0 mm 2 m/s 682 mmHg 63%
    04:00 +26°C° 0 mm 2 m/s 682 mmHg 62%
    05:00 +27°C° 0 mm 2 m/s 682 mmHg 61%
    06:00 +27°C° 0 mm 2 m/s 683 mmHg 61%
    07:00 +29°C° 0 mm 2 m/s 683 mmHg 53%
    08:00 +31°C° 0 mm 2 m/s 683 mmHg 46%
    09:00 +34°C° 0 mm 2 m/s 683 mmHg 39%
    10:00 +36°C° 0,1 mm 2 m/s 683 mmHg 35%
    11:00 +37°C° 0,1 mm 2 m/s 683 mmHg 32%
    12:00 +39°C° 0,1 mm 2 m/s 683 mmHg 28%
    13:00 +40°C° 0,3 mm 3 m/s 682 mmHg 27%
    14:00 +40°C° 0,3 mm 3 m/s 682 mmHg 27%
    15:00 +42°C° 0,3 mm 4 m/s 682 mmHg 26%
    16:00 +40°C° 0,4 mm 4 m/s 682 mmHg 29%
    17:00 +38°C° 0,4 mm 4 m/s 682 mmHg 33%
    18:00 +37°C° 0,4 mm 4 m/s 681 mmHg 37%
    19:00 +35°C° 0 mm 4 m/s 682 mmHg 44%
    20:00 +33°C° 0 mm 3 m/s 682 mmHg 52%
    21:00 +29°C° 0 mm 3 m/s 682 mmHg 59%
    22:00 +29°C° 0 mm 3 m/s 682 mmHg 62%
    23:00 +28°C° 0 mm 3 m/s 683 mmHg 64%

    27 Juillet, Vendredi

    Heure Température Précipitation Vent Pression Humidité
    00:00 +27°C° 0 mm 3 m/s 683 mmHg 66%
    01:00 +27°C° 0 mm 3 m/s 683 mmHg 66%
    02:00 +26°C° 0 mm 3 m/s 683 mmHg 67%
    03:00 +26°C° 0 mm 3 m/s 683 mmHg 67%
    04:00 +26°C° 0 mm 2 m/s 683 mmHg 66%
    05:00 +26°C° 0 mm 2 m/s 683 mmHg 64%
    06:00 +26°C° 0 mm 2 m/s 683 mmHg 62%
    07:00 +28°C° 0 mm 2 m/s 683 mmHg 55%
    08:00 +31°C° 0 mm 2 m/s 683 mmHg 48%
    09:00 +34°C° 0 mm 2 m/s 683 mmHg 41%
    10:00 +35°C° 0 mm 2 m/s 683 mmHg 38%
    11:00 +37°C° 0 mm 2 m/s 683 mmHg 35%
    12:00 +38°C° 0 mm 3 m/s 683 mmHg 31%
    13:00 +39°C° 0 mm 3 m/s 682 mmHg 31%
    14:00 +39°C° 0 mm 3 m/s 682 mmHg 30%
    15:00 +40°C° 0 mm 4 m/s 682 mmHg 30%
    16:00 +38°C° 0 mm 4 m/s 682 mmHg 33%
    17:00 +37°C° 0 mm 5 m/s 682 mmHg 36%
    18:00 +36°C° 0 mm 6 m/s 681 mmHg 40%
    19:00 +34°C° 0 mm 5 m/s 682 mmHg 43%
    20:00 +32°C° 0 mm 4 m/s 682 mmHg 46%
    21:00 +29°C° 0 mm 3 m/s 682 mmHg 49%
    22:00 +29°C° 0 mm 3 m/s 683 mmHg 50%
    23:00 +28°C° 0 mm 3 m/s 683 mmHg 50%
    Voir plus